This is the latest recevied weather packets stored in our database for station/object N2RDT. If no packets are shown the sender has not sent any weather packets the latest 10 day(s).
| Time | Temp. | Humidity | Pressure | Rain* | Wind** | Luminosity | Snow |
|---|---|---|---|---|---|---|---|
| 1777819640 | 13.33° C | 41% | 1019.7 hPa | 0 mm | - | 781 W/m² | - |
| 1777819338 | 13.89° C | 42% | 1019.8 hPa | 0 mm | - | 766 W/m² | - |
| 1777819034 | 13.33° C | 42% | 1019.7 hPa | 0 mm | - | 750 W/m² | - |
| 1777818732 | 13.33° C | 44% | 1019.7 hPa | 0 mm | - | 738 W/m² | - |
| 1777818428 | 13.89° C | 44% | 1019.5 hPa | 0 mm | - | 718 W/m² | - |
| 1777818125 | 13.33° C | 44% | 1019.6 hPa | 0 mm | - | 701 W/m² | - |
| 1777817821 | 13.89° C | 44% | 1019.6 hPa | 0 mm | - | 688 W/m² | - |
| 1777817519 | 13.33° C | 43% | 1019.4 hPa | 0 mm | - | 671 W/m² | - |
| 1777817215 | 13.33° C | 44% | 1019.6 hPa | 0 mm | - | 658 W/m² | - |
| 1777816913 | 13.89° C | 45% | 1019.5 hPa | 0 mm | - | 643 W/m² | - |
| 1777816609 | 13.89° C | 43% | 1019.5 hPa | 0 mm | - | 625 W/m² | - |
| 1777816306 | 12.78° C | 46% | 1019.4 hPa | 0 mm | - | 608 W/m² | - |
| 1777816004 | 12.78° C | 46% | 1019.5 hPa | 0 mm | - | 593 W/m² | - |
| 1777815701 | 12.78° C | 47% | 1019.7 hPa | 0 mm | - | 575 W/m² | - |
| 1777815398 | 12.78° C | 48% | 1019.6 hPa | 0 mm | - | 556 W/m² | - |
| 1777815095 | 12.78° C | 48% | 1019.3 hPa | 0 mm | - | 537 W/m² | - |
| 1777814791 | 12.22° C | 47% | 1019.6 hPa | 0 mm | - | 516 W/m² | - |
| 1777814489 | 12.78° C | 49% | 1019.5 hPa | 0 mm | - | 498 W/m² | - |
| 1777814186 | 12.22° C | 48% | 1019.5 hPa | 0 mm | - | 473 W/m² | - |
| 1777813883 | 12.22° C | 51% | 1019.4 hPa | 0 mm | - | 448 W/m² | - |
| 1777813580 | 11.67° C | 50% | 1019.6 hPa | 0 mm | - | 421 W/m² | - |
| 1777813278 | 11.67° C | 51% | 1019.6 hPa | 0 mm | - | 394 W/m² | - |
| 1777812974 | 12.22° C | 54% | 1019.4 hPa | 0 mm | - | 368 W/m² | - |
| 1777812672 | 11.67° C | 54% | 1019.4 hPa | 0 mm | - | 345 W/m² | - |
| 1777812369 | 11.11° C | 52% | 1019.3 hPa | 0 mm | - | 330 W/m² | - |
* Rain latest hour (hover to see other rain measurements)
** Current wind speed in m/s (hover to see current wind gust speed)